| time (UTC) | temp C | wind direction | speed KPH | gust KPH | rain 1hr cm | rain 24hr cm | rain mn cm | humidity % | barometer mb |
| 20260507114607 | -17 | 0.0 | 0.0 | 0.00 | 0.00 | 0.00 | 1020.1 | ||
| 20260507113112 | 5 | 148 | 0.0 | 0.0 | 0.00 | 0.00 | 0.00 | 95 | 1020.1 |
| 20260507111555 | 5 | 148 | 0.0 | 0.0 | 0.00 | 0.00 | 0.00 | 95 | 1020.1 |
| 20260507110050 | 6 | 148 | 0.0 | 0.0 | 0.00 | 0.00 | 0.00 | 94 | 1020.1 |
| 20260507104549 | 6 | 148 | 0.0 | 0.0 | 0.00 | 0.00 | 0.00 | 94 | 1019.9 |
| 20260507103053 | 6 | 148 | 0.0 | 0.0 | 0.00 | 0.00 | 0.00 | 94 | 1019.8 |
| 20260507101549 | 7 | 148 | 0.0 | 0.0 | 0.00 | 0.00 | 0.00 | 95 | 1019.9 |
| 20260507100046 | 6 | 148 | 0.0 | 0.0 | 0.00 | 0.00 | 0.00 | 94 | 1019.8 |
| 20260507094545 | 6 | 148 | 0.0 | 0.0 | 0.00 | 0.00 | 0.00 | 94 | 1019.9 |
| 20260507093048 | 6 | 148 | 0.0 | 0.0 | 0.00 | 0.00 | 0.00 | 94 | 1019.9 |
| 20260507091544 | 6 | 148 | 0.0 | 0.0 | 0.00 | 0.00 | 0.00 | 94 | 1019.8 |
| 20260507090041 | 6 | 148 | 0.0 | 0.0 | 0.00 | 0.00 | 0.00 | 94 | 1019.7 |
| 20260507084545 | 6 | 148 | 0.0 | 0.0 | 0.00 | 0.00 | 0.00 | 95 | 1020.1 |
| 20260507083039 | 5 | 148 | 0.0 | 0.0 | 0.00 | 0.00 | 0.00 | 95 | 1020.0 |
| 20260507081544 | 5 | 148 | 0.0 | 0.0 | 0.00 | 0.00 | 0.00 | 95 | 1019.9 |
| 20260507080036 | 5 | 293 | 0.0 | 0.0 | 0.00 | 0.00 | 0.00 | 95 | 1020.2 |
| 20260507074537 | 4 | 293 | 0.0 | 0.0 | 0.00 | 0.00 | 0.00 | 95 | 1020.1 |
| 20260507073035 | 4 | 293 | 0.0 | 0.0 | 0.00 | 0.00 | 0.00 | 94 | 1020.0 |
| 20260507071532 | 4 | 293 | 0.0 | 0.0 | 0.00 | 0.00 | 0.00 | 94 | 1020.1 |
| 20260507070031 | 5 | 292 | 0.0 | 0.0 | 0.00 | 0.00 | 0.00 | 94 | 1020.3 |
| 20260507064529 | 5 | 293 | 0.0 | 0.0 | 0.00 | 0.00 | 0.00 | 94 | 1020.3 |
| 20260507063028 | 5 | 293 | 0.0 | 0.0 | 0.00 | 0.00 | 0.00 | 93 | 1020.6 |
| 20260507061526 | 5 | 293 | 0.0 | 0.0 | 0.00 | 0.00 | 0.00 | 93 | 1020.7 |
| 20260507060023 | 5 | 293 | 0.0 | 0.0 | 0.00 | 0.00 | 0.00 | 92 | 1020.5 |
| 20260507054521 | 5 | 292 | 0.0 | 0.0 | 0.00 | 0.00 | 0.00 | 92 | 1020.5 |
| 20260507053019 | 6 | 292 | 0.0 | 0.0 | 0.00 | 0.00 | 0.00 | 91 | 1020.5 |
| 20260507051518 | 6 | 293 | 0.0 | 0.0 | 0.00 | 0.00 | 0.00 | 91 | 1020.5 |
| 20260507050024 | 6 | 293 | 0.0 | 0.0 | 0.00 | 0.00 | 0.00 | 90 | 1020.5 |
| 20260507044514 | 6 | 293 | 0.0 | 0.0 | 0.00 | 0.00 | 0.00 | 90 | 1020.5 |
| 20260507043020 | 6 | 293 | 0.0 | 0.0 | 0.00 | 0.00 | 0.00 | 89 | 1020.4 |
| 20260507041510 | 6 | 293 | 0.0 | 0.0 | 0.00 | 0.00 | 0.00 | 88 | 1020.4 |
| 20260507040009 | 6 | 294 | 0.0 | 0.0 | 0.00 | 0.00 | 0.00 | 88 | 1020.3 |
| 20260507034517 | 7 | 326 | 0.0 | 0.0 | 0.00 | 0.00 | 0.00 | 87 | 1020.3 |
| 20260507033008 | 7 | 328 | 0.0 | 0.0 | 0.00 | 0.00 | 0.00 | 86 | 1020.2 |
| 20260507031507 | 7 | 329 | 0.0 | 0.0 | 0.00 | 0.00 | 0.00 | 84 | 1020.0 |
| 20260507030009 | 8 | 338 | 0.0 | 0.0 | 0.00 | 0.00 | 0.00 | 82 | 1019.9 |
| 20260507024513 | 8 | 11 | 0.0 | 0.0 | 0.00 | 0.00 | 0.00 | 79 | 1019.9 |
| 20260507023008 | 9 | 15 | 0.0 | 0.0 | 0.00 | 0.00 | 0.00 | 76 | 1019.8 |
| 20260507021509 | 10 | 15 | 0.0 | 0.0 | 0.00 | 0.00 | 0.00 | 72 | 1019.8 |
| 20260507020006 | 11 | 17 | 0.0 | 0.0 | 0.00 | 0.00 | 0.00 | 65 | 1019.7 |
| 20260507014505 | 12 | 17 | 0.0 | 0.0 | 0.00 | 0.00 | 0.00 | 64 | 1019.3 |
| 20260507013005 | 13 | 17 | 0.0 | 6.4 | 0.00 | 0.00 | 0.00 | 58 | 1019.1 |
| 20260507011506 | 13 | 9 | 4.8 | 11.3 | 0.00 | 0.00 | 0.00 | 56 | 1019.1 |
| 20260507010005 | 14 | 339 | 4.8 | 14.5 | 0.00 | 0.00 | 0.00 | 55 | 1019.0 |
| 20260507004503 | 15 | 29 | 8.0 | 16.1 | 0.00 | 0.00 | 0.00 | 53 | 1018.9 |
| 20260507003002 | 15 | 350 | 6.4 | 17.7 | 0.00 | 0.00 | 0.00 | 52 | 1018.6 |
| 20260507001505 | 15 | 55 | 12.9 | 19.3 | 0.00 | 0.00 | 0.00 | 52 | 1018.6 |
| 20260507000002 | 15 | 31 | 11.3 | 22.5 | 0.00 | 0.00 | 0.00 | 53 | 1018.4 |
| 20260506234501 | 15 | 17 | 11.3 | 20.9 | 0.00 | 0.00 | 0.00 | 54 | 1018.2 |
| 20260506233102 | 15 | 17 | 6.4 | 19.3 | 0.00 | 0.00 | 0.00 | 54 | 1018.1 |
| 20260506231607 | 16 | 55 | 8.0 | 17.7 | 0.00 | 0.00 | 0.00 | 53 | 1018.0 |
| 20260506230114 | 16 | 10 | 8.0 | 17.7 | 0.00 | 0.00 | 0.00 | 54 | 1018.2 |
| 20260506224559 | 15 | 18 | 9.7 | 24.1 | 0.00 | 0.00 | 0.00 | 54 | 1018.1 |
| 20260506223103 | 15 | 21 | 6.4 | 14.5 | 0.00 | 0.00 | 0.00 | 54 | 1018.4 |
| 20260506221610 | 15 | 14 | 8.0 | 20.9 | 0.00 | 0.00 | 0.00 | 53 | 1018.2 |
| 20260506220058 | 15 | 31 | 8.0 | 20.9 | 0.00 | 0.00 | 0.00 | 53 | 1018.3 |
| 20260506214556 | 16 | 328 | 9.7 | 19.3 | 0.00 | 0.00 | 0.00 | 53 | 1018.3 |
| 20260506213057 | 16 | 63 | 9.7 | 20.9 | 0.00 | 0.00 | 0.00 | 54 | 1018.4 |
| 20260506211554 | 16 | 30 | 11.3 | 22.5 | 0.00 | 0.00 | 0.00 | 52 | 1018.5 |
| 20260506210057 | 16 | 338 | 12.9 | 24.1 | 0.00 | 0.00 | 0.00 | 53 | 1018.6 |
| 20260506204555 | 16 | 36 | 12.9 | 19.3 | 0.00 | 0.00 | 0.00 | 53 | 1018.7 |
| 20260506203058 | 16 | 18 | 12.9 | 22.5 | 0.00 | 0.00 | 0.00 | 53 | 1018.7 |
| 20260506201548 | 16 | 25 | 14.5 | 24.1 | 0.00 | 0.00 | 0.00 | 54 | 1018.9 |
| 20260506200053 | 15 | 94 | 4.8 | 16.1 | 0.00 | 0.00 | 0.00 | 54 | 1019.3 |
| 20260506194546 | 15 | 84 | 8.0 | 12.9 | 0.00 | 0.00 | 0.00 | 56 | 1019.2 |
| 20260506193049 | 15 | 14 | 12.9 | 25.7 | 0.00 | 0.00 | 0.00 | 54 | 1019.6 |
| 20260506191544 | 16 | 330 | 11.3 | 24.1 | 0.00 | 0.00 | 0.00 | 54 | 1019.6 |
| 20260506190048 | 15 | 346 | 16.1 | 24.1 | 0.00 | 0.00 | 0.00 | 54 | 1019.9 |
| 20260506184546 | 16 | 30 | 8.0 | 19.3 | 0.00 | 0.00 | 0.00 | 56 | 1020.0 |
| 20260506183038 | 15 | 34 | 11.3 | 20.9 | 0.00 | 0.00 | 0.00 | 55 | 1020.4 |
| 20260506181541 | 15 | 348 | 9.7 | 20.9 | 0.00 | 0.00 | 0.00 | 56 | 1020.2 |
| 20260506180036 | 15 | 335 | 9.7 | 20.9 | 0.00 | 0.00 | 0.00 | 57 | 1020.5 |
| 20260506174537 | 15 | 15 | 8.0 | 22.5 | 0.00 | 0.00 | 0.00 | 58 | 1020.8 |
| 20260506173031 | 14 | 31 | 11.3 | 24.1 | 0.00 | 0.00 | 0.00 | 57 | 1020.8 |
| 20260506171534 | 14 | 335 | 12.9 | 22.5 | 0.00 | 0.00 | 0.00 | 60 | 1020.9 |
| 20260506170031 | 14 | 333 | 9.7 | 19.3 | 0.00 | 0.00 | 0.00 | 60 | 1021.1 |
| 20260506164543 | 13 | 321 | 11.3 | 24.1 | 0.00 | 0.00 | 0.00 | 56 | 1021.0 |
| 20260506163024 | 13 | 24 | 11.3 | 20.9 | 0.00 | 0.00 | 0.00 | 61 | 1020.8 |
| 20260506161522 | 13 | 311 | 8.0 | 17.7 | 0.00 | 0.00 | 0.00 | 61 | 1020.3 |
| 20260506160017 | 12 | 45 | 11.3 | 22.5 | 0.00 | 0.00 | 0.00 | 63 | 1019.9 |
| 20260506154515 | 12 | 286 | 12.9 | 24.1 | 0.00 | 0.00 | 0.00 | 63 | 1019.5 |
| 20260506153012 | 12 | 326 | 11.3 | 19.3 | 0.00 | 0.00 | 0.00 | 65 | 1019.6 |
| 20260506151514 | 12 | 33 | 4.8 | 19.3 | 0.00 | 0.00 | 0.00 | 64 | 1019.8 |
| 20260506150009 | 11 | 32 | 6.4 | 19.3 | 0.00 | 0.00 | 0.00 | 68 | 1019.7 |
| 20260506144509 | 11 | 49 | 8.0 | 20.9 | 0.00 | 0.05 | 0.00 | 70 | 1019.6 |
| 20260506143004 | 11 | 327 | 4.8 | 12.9 | 0.00 | 0.05 | 0.00 | 71 | 1019.6 |
| 20260506141559 | 11 | 340 | 0.0 | 12.9 | 0.00 | 0.05 | 0.00 | 75 | 1019.8 |
| 20260506140057 | 10 | 121 | 3.2 | 9.7 | 0.00 | 0.05 | 0.00 | 77 | 1019.9 |
| 20260506134553 | 9 | 9 | 8.0 | 14.5 | 0.00 | 0.05 | 0.00 | 80 | 1019.9 |
| 20260506133104 | 8 | 44 | 4.8 | 11.3 | 0.00 | 0.05 | 0.00 | 82 | 1019.8 |
| 20260506131547 | 8 | 27 | 3.2 | 11.3 | 0.00 | 0.05 | 0.00 | 86 | 1019.5 |
| 20260506130042 | 8 | 38 | 1.6 | 8.0 | 0.00 | 0.05 | 0.00 | 86 | 1019.4 |
| 20260506124539 | 7 | 35 | 0.0 | 3.2 | 0.00 | 0.05 | 0.00 | 87 | 1019.5 |
| 20260506123036 | 7 | 30 | 1.6 | 9.7 | 0.00 | 0.05 | 0.00 | 87 | 1019.2 |
| 20260506121532 | -17 | 0.0 | 0.0 | 0.00 | 0.05 | 0.00 | 1018.8 | ||
| 20260506120048 | -17 | 0.0 | 0.0 | 0.00 | 0.05 | 0.00 | 1018.9 |